Location: Twentynine Palms Airport
(34.1316°N, 115.9458°W)
Time: 05:49:13
(UTC-07:00)

Amateur Radio Satellites - All Passes

Search period start: 31 October 2014 05:19
Search period end: 01 November 2014 05:19
Location: Twentynine Palms Airport, 34.1316°N, 115.9458°W

Satellite Date Start Highest point End Downlink Frequencies (MHz)
Time Altitude Azimuth
PANSAT 31 Oct 05:22:41 05:26:12 34° 176° (S) 05:29:42 not established
JAS-2 31 Oct 05:30:15 05:37:36 42° 97° (E) 05:44:34 435.800 - 435.900 CW/SSB, 435.910 FM
AO-7 31 Oct 05:48:12 05:56:18 58° 292° (WNW) 06:04:25 29.400 - 29.500 MHz
OPAL 31 Oct 06:13:02 06:17:04 23° 262° (W) 06:21:06 ?
Hamsat 31 Oct 06:27:08 06:31:22 78° 102° (ESE) 06:35:37 145.90 MHz
STRAND 1 31 Oct 06:29:02 06:33:59 52° 73° (ENE) 06:38:59 ?
RS-15 31 Oct 06:36:09 06:47:28 84° 62° (ENE) 06:59:17 29.354 - 29.394 USB, Beacon 29.352 USB
Uosat F 31 Oct 06:44:59 06:46:54 12° 297° (WNW) 06:48:50 435.120 FM
Saudisat 1A 31 Oct 07:00:27 07:02:57 15° 311° (NW) 07:05:28 436.775 MHz
PANSAT 31 Oct 07:02:38 07:06:00 29° 189° (S) 07:09:21 not established
JAS-2 31 Oct 07:15:19 07:22:22 38° 293° (WNW) 07:29:10 435.800 - 435.900 CW/SSB, 435.910 FM
SO-67 31 Oct 07:28:14 07:31:32 44° 99° (E) 07:34:50 435.3500 MHz FM
STRAND 1 31 Oct 08:10:33 08:13:25 15° 267° (W) 08:16:19 ?
MaSat-1 31 Oct 08:23:42 08:25:49 27° 251° (WSW) 08:27:51 437.345 MHz
HO-68 31 Oct 08:29:13 08:34:11 20° 94° (E) 08:39:06 435.675 MHz FM
PANSAT 31 Oct 08:43:42 08:45:37 13° 201° (SSW) 08:47:33 not established
RS-15 31 Oct 08:50:50 08:58:32 21° 258° (WSW) 09:06:30 29.354 - 29.394 USB, Beacon 29.352 USB
ISS 31 Oct 09:09:38 09:12:41 35° 132° (SE) 09:15:45 145.800 FM
KITSAT 1 31 Oct 09:32:44 09:39:14 28° 105° (ESE) 09:45:43 435.175 FM
UKube-1 31 Oct 10:08:47 10:13:02 50° 100° (E) 10:17:15 145.840 MHz, 145.915 MHz
HO-68 31 Oct 10:15:11 10:22:17 65° 289° (WNW) 10:29:20 435.675 MHz FM
PCSat 31 Oct 10:16:19 10:18:28 12° 48° (NE) 10:20:38 145.825 MHz
ZACube-1 31 Oct 10:18:11 10:21:33 24° 96° (E) 10:24:54 437.345 MHz
Oscar 11 31 Oct 10:43:50 10:48:05 60° 285° (WNW) 10:52:19 145.825 FM, Beacon 2401.500 USB
ISS 31 Oct 10:46:55 10:49:27 20° 327° (NNW) 10:51:59 145.800 FM
SO-50 31 Oct 10:47:24 10:51:49 69° 117° (ESE) 10:56:22 436.795 FM
FUNcube-1 31 Oct 11:00:25 11:04:36 82° 102° (ESE) 11:08:44 145.950 - 145.970 MHz USB
KITSAT 1 31 Oct 11:26:12 11:34:05 56° 301° (WNW) 11:42:01 435.175 FM
UOSAT-12 31 Oct 11:33:07 11:36:01 17° 108° (ESE) 11:38:58 437.025 FM, 437.400 FM
Sapphire 31 Oct 11:35:34 11:40:53 53° 61° (ENE) 11:46:09 437.095 MHz 1200 baud AX-25 AFSK
UKube-1 31 Oct 11:46:59 11:48:44 12° 295° (WNW) 11:50:28 145.840 MHz, 145.915 MHz
ZACube-1 31 Oct 11:54:37 11:57:49 22° 290° (WNW) 12:00:59 437.345 MHz
PCSat 31 Oct 11:57:10 12:02:37 89° 245° (WSW) 12:08:01 145.825 MHz
Oscar 16 31 Oct 12:11:30 12:13:43 13° 64° (ENE) 12:15:55 437.025 USB, Beacon 2401.1428
SO-50 31 Oct 12:30:49 12:32:52 13° 314° (NW) 12:34:55 436.795 FM
Uribyol 2 31 Oct 12:45:19 12:46:46 11° 62° (ENE) 12:48:14 436.500 FM
AO-Echo 31 Oct 12:46:01 12:48:26 14° 64° (ENE) 12:50:53 ?
ITAMSAT 1 31 Oct 12:52:31 12:54:41 13° 63° (ENE) 12:56:50 435.822 SSB
Oscar 19 31 Oct 13:00:41 13:05:26 40° 72° (ENE) 13:10:12 437.125 CW, 437.150 USB
UOSAT-12 31 Oct 13:11:22 13:15:46 43° 303° (WNW) 13:20:15 437.025 FM, 437.400 FM
Sapphire 31 Oct 13:20:27 13:23:48 17° 256° (WSW) 13:27:08 437.095 MHz 1200 baud AX-25 AFSK
JAS-1B 31 Oct 13:24:01 13:29:46 62° 73° (ENE) 13:35:22 435.800 - 435.900 CW/SSB
KITSAT 1 31 Oct 13:28:21 13:31:25 12° 324° (NW) 13:34:29 435.175 FM
AO-27 31 Oct 13:37:10 13:41:54 37° 71° (ENE) 13:46:40 436.795 MHz FM
Oscar 16 31 Oct 13:47:20 13:52:27 66° 258° (WSW) 13:57:35 437.025 USB, Beacon 2401.1428
Saudisat 1A 31 Oct 13:49:57 13:52:47 16° 49° (NE) 13:55:35 436.775 MHz
Gurwin Techsat 1B 31 Oct 13:53:30 13:57:52 27° 69° (ENE) 14:02:16 435.225 FM
TMSAT-1 31 Oct 14:00:11 14:04:15 23° 67° (ENE) 14:08:18 436.925 FM
Uribyol 2 31 Oct 14:20:18 14:25:31 78° 257° (WSW) 14:30:46 436.500 FM
AO-Echo 31 Oct 14:21:42 14:26:34 60° 259° (W) 14:31:38 ?
ITAMSAT 1 31 Oct 14:28:20 14:33:31 69° 258° (WSW) 14:38:45 435.822 SSB
Oscar 19 31 Oct 14:41:12 14:44:52 20° 265° (W) 14:48:33 437.125 CW, 437.150 USB
AO-7 31 Oct 14:52:01 14:58:39 28° 60° (ENE) 15:05:16 29.400 - 29.500 MHz
AO-27 31 Oct 15:17:27 15:21:26 22° 265° (W) 15:25:28 436.795 MHz FM
JAS-1B 31 Oct 15:18:39 15:20:54 12° 267° (W) 15:23:07 435.800 - 435.900 CW/SSB
Saudisat 1A 31 Oct 15:28:19 15:32:34 47° 245° (WSW) 15:36:47 436.775 MHz
Gurwin Techsat 1B 31 Oct 15:33:00 15:37:40 31° 263° (W) 15:42:22 435.225 FM
TMSAT-1 31 Oct 15:39:00 15:43:53 38° 262° (W) 15:48:48 436.925 FM
ISS 31 Oct 15:42:17 15:43:45 12° 28° (NNE) 15:45:12 145.800 FM
JAS-2 31 Oct 15:43:22 15:44:36 11° 55° (NE) 15:45:51 435.800 - 435.900 CW/SSB, 435.910 FM
Uosat F 31 Oct 16:13:12 16:18:09 63° 74° (ENE) 16:23:08 435.120 FM
AO-7 31 Oct 16:42:44 16:50:51 60° 257° (WSW) 16:59:01 29.400 - 29.500 MHz
OPAL 31 Oct 16:49:45 16:51:05 11° 94° (E) 16:52:26 ?
Hamsat 31 Oct 17:16:57 17:20:42 33° 73° (ENE) 17:24:27 145.90 MHz
ISS 31 Oct 17:17:30 17:20:50 86° 224° (SW) 17:24:10 145.800 FM
JAS-2 31 Oct 17:22:04 17:28:09 74° 74° (ENE) 17:35:08 435.800 - 435.900 CW/SSB, 435.910 FM
Oscar 10/S400 31 Oct 17:42:58 18:05:15 72° 185° (S) 03:34:38 145.825 - 145.975 CW/USB, Beacon 145.810 USB
Uosat F 31 Oct 17:55:31 17:57:17 12° 268° (W) 17:59:02 435.120 FM
OPAL 31 Oct 18:25:26 18:30:20 65° 288° (WNW) 18:35:13 ?
STRAND 1 31 Oct 18:44:06 18:48:12 24° 96° (E) 18:52:17 ?
RS-15 31 Oct 18:49:48 18:54:51 14° 99° (E) 18:59:50 29.354 - 29.394 USB, Beacon 29.352 USB
Hamsat 31 Oct 18:54:10 18:56:42 16° 266° (W) 18:59:13 145.90 MHz
HO-68 31 Oct 18:59:32 18:59:43 10° 54° (NE) 18:59:54 435.675 MHz FM
JAS-2 31 Oct 19:10:50 19:14:02 14° 272° (W) 19:17:27 435.800 - 435.900 CW/SSB, 435.910 FM
SO-50 31 Oct 19:22:51 19:26:52 25° 52° (NE) 19:30:53 436.795 FM
KITSAT 1 31 Oct 19:23:39 19:31:06 39° 54° (NE) 19:38:29 435.175 FM
SO-67 31 Oct 19:29:40 19:32:55 41° 261° (W) 19:36:11 435.3500 MHz FM
STRAND 1 31 Oct 20:22:48 20:27:22 33° 290° (WNW) 20:31:55 ?
HO-68 31 Oct 20:39:00 20:46:04 67° 71° (ENE) 20:53:10 435.675 MHz FM
RS-15 31 Oct 20:54:22 21:05:24 81° 116° (ESE) 21:16:20 29.354 - 29.394 USB, Beacon 29.352 USB
UKube-1 31 Oct 21:00:54 21:04:34 27° 70° (ENE) 21:08:16 145.840 MHz, 145.915 MHz
SO-50 31 Oct 21:03:03 21:07:27 34° 247° (WSW) 21:11:51 436.795 FM
ZACube-1 31 Oct 21:12:05 21:14:30 14° 68° (ENE) 21:16:55 437.345 MHz
KITSAT 1 31 Oct 21:19:00 21:26:27 43° 251° (WSW) 21:33:53 435.175 FM
Oscar 11 31 Oct 21:34:50 21:39:06 64° 76° (ENE) 21:43:23 145.825 FM, Beacon 2401.500 USB
UOSAT-12 31 Oct 21:44:18 21:48:56 56° 59° (ENE) 21:53:28 437.025 FM, 437.400 FM
FUNcube-1 31 Oct 21:52:45 21:57:00 41° 74° (ENE) 22:01:12 145.950 - 145.970 MHz USB
MaSat-1 31 Oct 21:53:50 21:57:50 75° 293° (WNW) 22:01:28 437.345 MHz
HO-68 31 Oct 22:29:24 22:34:11 19° 266° (W) 22:39:01 435.675 MHz FM
UKube-1 31 Oct 22:37:24 22:40:42 21° 264° (W) 22:44:00 145.840 MHz, 145.915 MHz
ZACube-1 31 Oct 22:46:08 22:50:30 45° 261° (W) 22:54:48 437.345 MHz
AO-40 31 Oct 22:58:59 23:59:29 15° 243° (WSW) 01:29:58 Beacon 2401.320
RS-15 31 Oct 23:10:03 23:18:57 28° 318° (NW) 23:27:56 29.354 - 29.394 USB, Beacon 29.352 USB
UOSAT-12 31 Oct 23:26:32 23:28:32 13° 253° (WSW) 23:30:31 437.025 FM, 437.400 FM
FUNcube-1 31 Oct 23:30:56 23:33:29 15° 266° (W) 23:36:01 145.950 - 145.970 MHz USB
Sapphire 01 Nov 00:34:52 00:36:03 11° 102° (ESE) 00:37:14 437.095 MHz 1200 baud AX-25 AFSK
PCSat 01 Nov 00:53:32 00:57:23 20° 105° (ESE) 01:01:15 145.825 MHz
JAS-1B 01 Nov 01:10:22 01:16:33 26° 97° (E) 01:23:30 435.800 - 435.900 CW/SSB
Oscar 19 01 Nov 01:16:52 01:20:27 19° 94° (E) 01:24:01 437.125 CW, 437.150 USB
RS-15 01 Nov 01:35:25 01:37:04 10° 354° (N) 01:38:43 29.354 - 29.394 USB, Beacon 29.352 USB
AO-27 01 Nov 01:54:56 01:58:23 18° 94° (E) 02:01:48 436.795 MHz FM
Oscar 16 01 Nov 02:02:50 02:07:54 60° 101° (E) 02:12:57 437.025 USB, Beacon 2401.1428
Sapphire 01 Nov 02:13:20 02:18:43 77° 296° (WNW) 02:24:10 437.095 MHz 1200 baud AX-25 AFSK
Gurwin Techsat 1B 01 Nov 02:14:37 02:17:19 14° 92° (E) 02:20:01 435.225 FM
TMSAT-1 01 Nov 02:21:36 02:23:09 11° 91° (E) 02:24:42 436.925 FM
AO-Echo 01 Nov 02:32:36 02:37:53 61° 101° (E) 02:43:02 ?
PCSat 01 Nov 02:35:15 02:40:24 45° 300° (WNW) 02:45:36 145.825 MHz
Uribyol 2 01 Nov 02:37:02 02:42:05 51° 100° (E) 02:47:06 436.500 FM
ITAMSAT 1 01 Nov 02:45:06 02:50:15 58° 101° (E) 02:55:21 435.822 SSB
Oscar 19 01 Nov 02:55:07 02:59:53 41° 288° (WNW) 03:04:39 437.125 CW, 437.150 USB
JAS-1B 01 Nov 02:59:55 03:07:07 59° 287° (WNW) 03:15:41 435.800 - 435.900 CW/SSB
PANSAT 01 Nov 03:17:54 03:20:52 21° 165° (SSE) 03:23:50 not established
AO-27 01 Nov 03:33:06 03:38:03 45° 288° (WNW) 03:42:59 436.795 MHz FM
Oscar 16 01 Nov 03:44:08 03:46:42 14° 296° (WNW) 03:49:16 437.025 USB, Beacon 2401.1428
RS-15 01 Nov 03:49:03 03:56:23 19° 32° (NNE) 04:03:51 29.354 - 29.394 USB, Beacon 29.352 USB
Gurwin Techsat 1B 01 Nov 03:52:23 03:57:36 58° 286° (WNW) 04:02:47 435.225 FM
TMSAT-1 01 Nov 03:58:13 04:03:30 70° 285° (WNW) 04:08:44 436.925 FM
OPAL 01 Nov 04:00:23 04:03:18 16° 63° (ENE) 04:06:13 ?
Sapphire 01 Nov 04:02:13 04:03:01 10° 314° (NW) 04:03:50 437.095 MHz 1200 baud AX-25 AFSK
AO-Echo 01 Nov 04:13:12 04:16:02 15° 296° (WNW) 04:18:51 ?
Uribyol 2 01 Nov 04:17:55 04:21:05 17° 295° (WNW) 04:24:15 436.500 FM
Uosat F 01 Nov 04:25:17 04:29:29 26° 97° (E) 04:33:38 435.120 FM
ITAMSAT 1 01 Nov 04:26:22 04:29:12 15° 296° (WNW) 04:32:01 435.822 SSB
JAS-2 01 Nov 04:37:51 04:42:03 15° 88° (E) 04:46:07 435.800 - 435.900 CW/SSB, 435.910 FM
AO-7 01 Nov 04:48:17 04:56:32 62° 104° (ESE) 05:04:45 29.400 - 29.500 MHz
PANSAT 01 Nov 04:57:06 05:00:37 34° 177° (S) 05:04:07 not established
